STARLINK-1660

Last updated on Fri Nov 06 2020 00:02:03 GMT+0000 (Coordinated Universal Time)

1 46574U 20070AU 20310.83334491 .00074770 00000-0 81560-3 0 9994 2 46574 53.0023 292.9725 0000980 76.8584 7.8876 15.62730849 5581

Satellite not in orbit